Hourly Data Report for October 01, 2014

All times are specified in Local Standard Time (LST). Add 1 hour to adjust for Daylight Saving Time where and when it is observed.

BATHURST A
NEW BRUNSWICK

47°37'47.000" N
65°44'20.000" W
58.80 m
8100505
71574
ZBF

Download Data

Hourly Data (October 2014)
Hourly Data Report for October 1, 2014
Temp Definition
°C
Dew Point Temp Definition
°C
Rel Hum Definition
%
Wind Dir Definition
10's deg

Wind Spd Definition
km/h
Visibility Definition
km
Stn Press Definition
kPa
Hmdx Definition


Wind Chill Definition


Weather Definition


TIME
00:00 Legend Double Dagger 8.0 7.4 96 30 5 9.7 101.32     Fog
01:00 Legend Double Dagger 7.9 7.3 96 36 3 9.7 101.33     Fog
02:00 Legend Double Dagger 7.9 7.3 96 31 4 9.7 101.37     Fog
03:00 Legend Double Dagger 8.0 6.6 91 32 4 11.3 101.38     LegendNANA
04:00 Legend Double Dagger 7.8 6.4 91 26 6 11.3 101.41     LegendNANA
05:00 Legend Double Dagger 7.6 6.1 90 31 8 16.1 101.46     Cloudy
06:00 Legend Double Dagger 7.2 5.7 90 30 8 24.1 101.53     LegendNANA
07:00 Legend Double Dagger 6.7 5.2 90 30 7 24.1 101.59     LegendNANA
08:00 Legend Double Dagger 7.1 4.9 86 30 7 24.1 101.61     Mainly Clear
09:00 Legend Double Dagger 8.6 5.4 80 34 9 24.1 101.68     LegendNANA
10:00 Legend Double Dagger 9.6 5.6 76 28 4 24.1 101.70     LegendNANA
11:00 Legend Double Dagger 10.5 5.5 71 7 3 24.1 101.72     Mostly Cloudy
12:00 Legend Double Dagger 11.6 5.9 68 23 3 24.1 101.70     LegendNANA
13:00 Legend Double Dagger 13.2 6.8 65 21 5 24.1 101.63     LegendNANA
14:00 Legend Double Dagger 13.6 6.0 60 26 7 24.1 101.60     Mainly Clear
15:00 Legend Double Dagger 13.7 8.0 68 8 10 24.1 101.57     LegendNANA
16:00 Legend Double Dagger 13.3 7.1 66 8 10 24.1 101.56     LegendNANA
17:00 Legend Double Dagger 12.5 7.2 70 4 8 24.1 101.59     Mainly Clear
18:00 Legend Double Dagger 10.3 7.9 85 4 5 24.1 101.64     LegendNANA
19:00 Legend Double Dagger 7.5 6.6 94 0 1 24.1 101.73     LegendNANA
20:00 Legend Double Dagger 6.1 5.4 95 15 3 24.1 101.79     Clear
21:00 Legend Double Dagger 5.7 5.1 96 36 1 24.1 101.86     LegendNANA
22:00 Legend Double Dagger 6.9 6.2 95 36 2 24.1 101.89     LegendNANA
23:00 Legend Double Dagger 5.0 4.4 96 36 1 24.1 101.90     Clear

Notes on Data Quality.

Legend

  • E = Estimated
  • M = Missing
  • NA = Not Available
  • ‡ = Partner data that is not subject to review by the National Climate Archives
Date modified: